CZ-6A DEB, 61336

Orbit data source: Space-Track

CZ-6A DEB, 61336 is space debris in LEO originally from a launch on Tue, 06 Aug 2024 UTC launched from the Taiyaun Space Center, China (TSC). Debris objects in space refer to the collection of defunct objects orbiting the Earth. Examples of debris include non-operational satellites, rocket bodies, and fragments generated from explosions, collisions, or faulty payload assembly.

Loading next visibility...
Identifier
61336, 2024-140UZ
Orbit
LEO
Country
Flag of CNCN / PRC
Related business
Manufacturer
SAST
Mission
Spacecraft
Bus & Motor
Unknown
Mass
Unknown
Launch date (UTC)
2024-08-06 (2 years ago)
Launch vehicle
Unknown
Launch site
Taiyaun Space Center, China (TSC)
Object type
Payload
Rocket body
Debris
Shape & HBR
Unknown shape, 0.1 m
Radar Cross Section
Medium (>0.1 m² and <1 m²)

Expand to show TLE details & history
Last TLE update: 1 day ago

TLE from 1 day ago
0 CZ-6A DEB
1 61336U 24140UZ  26170.71361339  .00002112  00000-0  11286-2 0  9995
2 61336  88.8532 264.4878 0105381 220.8059 138.5201 14.10104693 92086
Epoch: 2026-06-19T17:07Z
TLE epoch observation values (Epoch: 2026-06-19T17:07:36.196Z)
Latitude
-0.00004°
Longitude
99.64835°
Altitude
919.55 km
Speed
7.363 km/s
True Right ascension
17h 37m 57s
True Declination
0° 00' 00"
Sunlit
Object was in full shadow at epoch
Visualization orbit readout
Latitude
Unknown
Longitude
Unknown
Altitude
Unknown
Speed
Unknown
Apparent Right ascension
Unknown
Apparent Declination
Unknown
Sunlit
N/A
Visualization observer readout
Local Sidereal Time
10:18:09
Azimuth
Unknown
Elevation
Unknown
Doppler factor
Unknown
Orbital elements
Apogee altitude
932.213 km
Perigee altitude
779.745 km
Semi-major axis
7,234.116 km
Eccentricity
0.01054
Inclination
88.8532°
RAAN
264.4878°
Arg. of periapsis
220.8059°
True anomaly
139.3121°
Mean anomaly
138.5201°
Eccentric anomaly
138.91688°
Mean motion
3.52748 °/min
Orbital period
102.06 mins
BSTAR
0.0011286
Loading maneuver chart data...
Computing Atmospheric mass density...
Loading historical data...
Loading historical data...
Loading historical data...
Loading historical data...
Loading historical data...
Loading historical data...
Loading historical data...

Documentation

Showing up to 5 results
|